Location: Saint-Palais-sur-Mer
(45.6429°N, 1.0859°W)
Time: 00:57:39
(UTC+01:00)

Tiros 1 despin weight - Pass Details

Date: 12 February 2026
Orbit: 556 x 593 km, 48.2° (Epoch: 13 March)

Event Time Altitude Azimuth Distance (km) Brightness Sun altitude
Rises 00:30:38 0° 287° (WNW) 2,747 - -56.6°
Reaches altitude 10° 00:33:05 10° 276° (W) 1,854 - -56.7°
Maximum altitude 00:36:46 29° 216° (SW) 1,038 - -56.9°
Drops below altitude 10° 00:40:29 10° 155° (SSE) 1,866 - -57.1°
Sets 00:42:57 0° 144° (SE) 2,768 - -57.2°
